Location: Beaurevoir
(49.9971°N, 3.3085°E)
Time: 05:39:35
(UTC+00:00)

COBE Rocket - Pass Details

Date: 23 May 2024
Orbit: 678 x 776 km, 97.1° (Epoch: 19 June)

Event Time Altitude Azimuth Distance (km) Brightness Sun altitude
Rises 02:16:58 0° 7° (N) 3,124 8.3 -11.6°
Reaches altitude 10° 02:19:17 10° 1° (N) 2,215 7.3 -11.4°
Maximum altitude 02:23:54 44° 291° (WNW) 1,005 4.5 -11.0°
Enters shadow 02:27:53 14° 223° (SW) 1,988 5.5 -10.6°
